Time,TemperatureF,DewpointF,PressureIn,WindDirection,WindDirectionDegrees,WindSpeedMPH,WindSpeedGustMPH,Humidity,HourlyPrecipIn,Conditions,Clouds,dailyrainin,SoftwareType,DateUTC
2013-05-21 00:02:00,54.0,47.0,29.93,SE,137,2.0,2.0,76,0.00,,,0.00,weatherlink.com 1.10,2013-05-21 07:02:00,
2013-05-21 00:17:00,53.9,48.0,29.93,SE,130,0.0,1.0,79,0.00,,,0.00,weatherlink.com 1.10,2013-05-21 07:17:00,
2013-05-21 00:32:00,53.0,47.0,29.93,SE,130,0.0,0.0,79,0.00,,,0.00,weatherlink.com 1.10,2013-05-21 07:32:00,
2013-05-21 00:47:00,51.9,46.0,29.92,SE,130,0.0,0.0,79,0.00,,,0.00,weatherlink.com 1.10,2013-05-21 07:47:00,
2013-05-21 01:02:00,51.0,45.0,29.92,SE,130,0.0,0.0,81,0.00,,,0.00,weatherlink.com 1.10,2013-05-21 08:02:00,
2013-05-21 01:17:00,51.2,46.0,29.93,SW,231,0.0,1.0,81,0.00,,,0.00,weatherlink.com 1.10,2013-05-21 08:17:00,
2013-05-21 01:32:00,50.5,44.0,29.92,SW,231,0.0,0.0,79,0.00,,,0.00,weatherlink.com 1.10,2013-05-21 08:32:00,
2013-05-21 01:47:00,50.3,45.0,29.92,SW,231,0.0,0.0,83,0.00,,,0.00,weatherlink.com 1.10,2013-05-21 08:47:00,
2013-05-21 02:02:00,50.2,45.0,29.91,SW,231,0.0,1.0,83,0.00,,,0.00,weatherlink.com 1.10,2013-05-21 09:02:00,
2013-05-21 02:32:00,51.6,47.0,29.91,NW,318,0.0,2.0,85,0.00,,,0.00,weatherlink.com 1.10,2013-05-21 09:32:00,
2013-05-21 02:47:00,51.1,46.0,29.91,West,271,0.0,0.0,82,0.00,,,0.00,weatherlink.com 1.10,2013-05-21 09:47:00,
2013-05-21 03:02:00,50.3,46.0,29.92,West,271,0.0,0.0,85,0.00,,,0.00,weatherlink.com 1.10,2013-05-21 10:02:00,
2013-05-21 03:17:00,49.7,45.0,29.92,SE,143,0.0,0.0,84,0.00,,,0.00,weatherlink.com 1.10,2013-05-21 10:17:00,
2013-05-21 03:32:00,50.0,46.0,29.92,SE,143,0.0,0.0,85,0.00,,,0.00,weatherlink.com 1.10,2013-05-21 10:32:00,
2013-05-21 03:47:00,50.3,47.0,29.91,SE,143,0.0,0.0,87,0.00,,,0.00,weatherlink.com 1.10,2013-05-21 10:47:00,
2013-05-21 04:02:00,50.1,45.0,29.91,SSE,153,0.0,1.0,83,0.00,,,0.00,weatherlink.com 1.10,2013-05-21 11:02:00,
2013-05-21 04:17:00,50.0,46.0,29.92,SSE,153,0.0,0.0,85,0.00,,,0.00,weatherlink.com 1.10,2013-05-21 11:17:00,
2013-05-21 04:32:00,51.6,49.0,29.92,SE,126,0.0,0.0,89,0.00,,,0.00,weatherlink.com 1.10,2013-05-21 11:32:00,
2013-05-21 04:47:00,50.3,46.0,29.93,SE,126,0.0,0.0,84,0.00,,,0.00,weatherlink.com 1.10,2013-05-21 11:47:00,
2013-05-21 05:02:00,49.7,46.0,29.93,SE,126,0.0,0.0,86,0.00,,,0.00,weatherlink.com 1.10,2013-05-21 12:02:00,
2013-05-21 05:17:00,50.4,47.0,29.93,SE,126,0.0,0.0,87,0.00,,,0.00,weatherlink.com 1.10,2013-05-21 12:17:00,
2013-05-21 05:32:00,50.4,45.0,29.93,SE,126,0.0,0.0,81,0.00,,,0.00,weatherlink.com 1.10,2013-05-21 12:32:00,
2013-05-21 05:47:00,50.2,45.0,29.94,SE,126,0.0,0.0,83,0.00,,,0.00,weatherlink.com 1.10,2013-05-21 12:47:00,
2013-05-21 06:02:00,50.4,46.0,29.95,SE,126,0.0,0.0,85,0.00,,,0.00,weatherlink.com 1.10,2013-05-21 13:02:00,
2013-05-21 06:17:00,51.2,48.0,29.95,SE,126,0.0,0.0,88,0.00,,,0.00,weatherlink.com 1.10,2013-05-21 13:17:00,
2013-05-21 06:32:00,51.9,49.0,29.95,SE,126,0.0,0.0,88,0.00,,,0.00,weatherlink.com 1.10,2013-05-21 13:32:00,
2013-05-21 06:48:00,52.3,49.0,29.96,SE,126,0.0,0.0,88,0.00,,,0.00,weatherlink.com 1.10,2013-05-21 13:48:00,
2013-05-21 07:03:00,53.2,49.0,29.96,SE,126,0.0,0.0,86,0.00,,,0.00,weatherlink.com 1.10,2013-05-21 14:03:00,
2013-05-21 07:18:00,53.8,49.0,29.97,SE,126,0.0,0.0,84,0.00,,,0.00,weatherlink.com 1.10,2013-05-21 14:18:00,
2013-05-21 07:48:00,55.5,49.0,29.97,SE,126,0.0,0.0,80,0.00,,,0.00,weatherlink.com 1.10,2013-05-21 14:48:00,
2013-05-21 08:03:00,56.1,50.0,29.97,SE,126,0.0,1.0,79,0.00,,,0.00,weatherlink.com 1.10,2013-05-21 15:03:00,
2013-05-21 08:18:00,56.7,49.0,29.98,SE,126,0.0,0.0,76,0.00,,,0.00,weatherlink.com 1.10,2013-05-21 15:18:00,
2013-05-21 08:33:00,57.2,48.0,29.98,ESE,123,0.0,0.0,72,0.00,,,0.00,weatherlink.com 1.10,2013-05-21 15:33:00,
2013-05-21 08:48:00,57.3,48.0,29.98,SE,128,0.0,1.0,72,0.00,,,0.00,weatherlink.com 1.10,2013-05-21 15:48:00,
2013-05-21 09:03:00,58.4,49.0,29.99,SSE,147,1.0,2.0,71,0.00,,,0.00,weatherlink.com 1.10,2013-05-21 16:03:00,
2013-05-21 09:18:00,60.3,49.0,29.99,SSE,155,2.0,5.0,67,0.00,,,0.00,weatherlink.com 1.10,2013-05-21 16:18:00,
2013-05-21 09:33:00,60.1,49.0,30.00,SSE,150,1.0,4.0,68,0.00,,,0.00,weatherlink.com 1.10,2013-05-21 16:33:00,
2013-05-21 09:48:00,60.8,50.0,30.00,SE,134,0.0,4.0,68,0.00,,,0.00,weatherlink.com 1.10,2013-05-21 16:48:00,
2013-05-21 10:03:00,61.7,51.0,30.00,SE,131,0.0,4.0,67,0.00,,,0.00,weatherlink.com 1.10,2013-05-21 17:03:00,
2013-05-21 10:18:00,63.1,50.0,30.00,SE,141,2.0,5.0,63,0.00,,,0.00,weatherlink.com 1.10,2013-05-21 17:18:00,
2013-05-21 10:33:00,62.9,50.0,30.00,ESE,112,3.0,5.0,63,0.00,,,0.00,weatherlink.com 1.10,2013-05-21 17:33:00,
2013-05-21 10:48:00,62.5,49.0,30.00,SE,131,2.0,6.0,62,0.00,,,0.00,weatherlink.com 1.10,2013-05-21 17:48:00,
2013-05-21 11:03:00,63.3,49.0,30.00,SE,130,3.0,5.0,59,0.00,,,0.00,weatherlink.com 1.10,2013-05-21 18:03:00,
2013-05-21 11:18:00,64.7,48.0,30.01,SE,129,1.0,7.0,55,0.00,,,0.00,weatherlink.com 1.10,2013-05-21 18:18:00,
2013-05-21 11:33:00,64.9,48.0,30.00,SE,143,1.0,7.0,54,0.00,,,0.00,weatherlink.com 1.10,2013-05-21 18:33:00,
2013-05-21 11:48:00,63.7,47.0,30.00,ESE,120,3.0,8.0,54,0.00,,,0.00,weatherlink.com 1.10,2013-05-21 18:48:00,
2013-05-21 12:03:00,64.6,46.0,30.00,SE,141,3.0,8.0,51,0.00,,,0.00,weatherlink.com 1.10,2013-05-21 19:03:00,
2013-05-21 12:18:00,66.1,45.0,30.00,ESE,117,0.0,6.0,47,0.00,,,0.00,weatherlink.com 1.10,2013-05-21 19:18:00,
2013-05-21 12:33:00,66.4,45.0,30.00,SE,145,5.0,6.0,46,0.00,,,0.00,weatherlink.com 1.10,2013-05-21 19:33:00,
2013-05-21 12:48:00,66.7,44.0,30.00,SE,133,6.0,6.0,44,0.00,,,0.00,weatherlink.com 1.10,2013-05-21 19:48:00,
2013-05-21 13:03:00,66.8,43.0,30.00,SSE,158,2.0,9.0,42,0.00,,,0.00,weatherlink.com 1.10,2013-05-21 20:03:00,
2013-05-21 13:19:00,67.5,43.0,29.99,ESE,107,6.0,6.0,41,0.00,,,0.00,weatherlink.com 1.10,2013-05-21 20:19:00,
2013-05-21 13:34:00,66.9,43.0,30.00,West,274,1.0,6.0,42,0.00,,,0.00,weatherlink.com 1.10,2013-05-21 20:34:00,
2013-05-21 13:49:00,66.9,45.0,29.99,SSE,163,6.0,10.0,45,0.00,,,0.00,weatherlink.com 1.10,2013-05-21 20:49:00,
2013-05-21 14:04:00,68.1,45.0,29.99,ESE,120,4.0,4.0,43,0.00,,,0.00,weatherlink.com 1.10,2013-05-21 21:04:00,
2013-05-21 14:19:00,66.8,44.0,29.99,SE,134,1.0,8.0,44,0.00,,,0.00,weatherlink.com 1.10,2013-05-21 21:19:00,
2013-05-21 14:34:00,66.9,45.0,29.99,SE,141,3.0,6.0,45,0.00,,,0.00,weatherlink.com 1.10,2013-05-21 21:34:00,
2013-05-21 14:49:00,66.9,45.0,29.99,ESE,105,2.0,7.0,46,0.00,,,0.00,weatherlink.com 1.10,2013-05-21 21:49:00,
2013-05-21 15:04:00,67.6,45.0,29.98,SSE,153,1.0,5.0,44,0.00,,,0.00,weatherlink.com 1.10,2013-05-21 22:04:00,
2013-05-21 15:19:00,67.9,43.0,29.98,NNE,19,5.0,7.0,41,0.00,,,0.00,weatherlink.com 1.10,2013-05-21 22:19:00,
2013-05-21 15:34:00,69.8,41.0,29.99,ENE,72,3.0,3.0,35,0.00,,,0.00,weatherlink.com 1.10,2013-05-21 22:34:00,
2013-05-21 15:49:00,68.4,44.0,29.98,ESE,121,3.0,4.0,41,0.00,,,0.00,weatherlink.com 1.10,2013-05-21 22:49:00,
2013-05-21 16:04:00,68.4,42.0,29.98,SW,235,0.0,4.0,38,0.00,,,0.00,weatherlink.com 1.10,2013-05-21 23:04:00,
2013-05-21 16:19:00,65.8,43.0,29.98,SSE,167,0.0,5.0,44,0.00,,,0.00,weatherlink.com 1.10,2013-05-21 23:19:00,
2013-05-21 16:34:00,65.2,43.0,29.98,South,173,1.0,4.0,45,0.00,,,0.00,weatherlink.com 1.10,2013-05-21 23:34:00,
2013-05-21 16:49:00,64.7,40.0,29.98,NNW,335,1.0,5.0,41,0.00,,,0.00,weatherlink.com 1.10,2013-05-21 23:49:00,
2013-05-21 17:04:00,63.5,40.0,29.98,NW,305,0.0,6.0,42,0.00,,,0.00,weatherlink.com 1.10,2013-05-22 00:04:00,
2013-05-21 17:19:00,63.3,40.0,29.98,NNW,348,0.0,3.0,43,0.00,,,0.00,weatherlink.com 1.10,2013-05-22 00:19:00,
2013-05-21 17:34:00,62.5,40.0,29.98,NE,36,1.0,4.0,44,0.00,,,0.00,weatherlink.com 1.10,2013-05-22 00:34:00,
2013-05-21 17:49:00,61.4,41.0,29.97,East,101,0.0,3.0,47,0.00,,,0.00,weatherlink.com 1.10,2013-05-22 00:49:00,
2013-05-21 18:04:00,60.6,41.0,29.97,NW,320,1.0,4.0,49,0.00,,,0.00,weatherlink.com 1.10,2013-05-22 01:04:00,
2013-05-21 18:19:00,59.3,41.0,29.96,SE,138,0.0,7.0,51,0.00,,,0.00,weatherlink.com 1.10,2013-05-22 01:19:00,
2013-05-21 18:34:00,59.1,41.0,29.96,North,8,0.0,3.0,51,0.00,,,0.00,weatherlink.com 1.10,2013-05-22 01:34:00,
2013-05-21 18:49:00,58.4,40.0,29.96,SSE,147,0.0,2.0,51,0.00,,,0.00,weatherlink.com 1.10,2013-05-22 01:49:00,
2013-05-21 19:04:00,57.2,41.0,29.96,ESE,117,0.0,2.0,55,0.00,,,0.00,weatherlink.com 1.10,2013-05-22 02:04:00,
2013-05-21 19:19:00,56.3,41.0,29.96,SE,132,0.0,2.0,56,0.00,,,0.00,weatherlink.com 1.10,2013-05-22 02:19:00,
2013-05-21 19:34:00,55.3,41.0,29.96,SE,133,0.0,3.0,58,0.00,,,0.00,weatherlink.com 1.10,2013-05-22 02:34:00,
2013-05-21 19:49:00,54.0,40.0,29.97,ESE,108,0.0,2.0,60,0.00,,,0.00,weatherlink.com 1.10,2013-05-22 02:49:00,
2013-05-21 20:04:00,53.1,39.0,29.97,SE,146,2.0,3.0,60,0.00,,,0.00,weatherlink.com 1.10,2013-05-22 03:04:00,
2013-05-21 20:19:00,52.8,37.0,29.97,SE,131,0.0,3.0,56,0.00,,,0.00,weatherlink.com 1.10,2013-05-22 03:19:00,
2013-05-21 20:34:00,52.0,38.0,29.98,NNE,15,0.0,4.0,60,0.00,,,0.00,weatherlink.com 1.10,2013-05-22 03:34:00,
2013-05-21 20:49:00,51.2,38.0,29.98,SW,231,0.0,2.0,62,0.00,,,0.00,weatherlink.com 1.10,2013-05-22 03:49:00,
2013-05-21 21:04:00,51.1,38.0,29.97,SE,135,0.0,1.0,62,0.00,,,0.00,weatherlink.com 1.10,2013-05-22 04:04:00,
2013-05-21 21:19:00,50.8,38.0,29.98,ESE,122,0.0,3.0,61,0.00,,,0.00,weatherlink.com 1.10,2013-05-22 04:19:00,
2013-05-21 21:34:00,50.4,37.0,29.98,East,96,0.0,1.0,61,0.00,,,0.00,weatherlink.com 1.10,2013-05-22 04:34:00,
2013-05-21 21:49:00,49.7,37.0,29.98,SE,137,0.0,2.0,61,0.00,,,0.00,weatherlink.com 1.10,2013-05-22 04:49:00,
2013-05-21 22:04:00,49.3,36.0,29.99,East,88,0.0,1.0,60,0.00,,,0.00,weatherlink.com 1.10,2013-05-22 05:04:00,
2013-05-21 22:19:00,49.3,37.0,30.00,SE,146,0.0,3.0,62,0.00,,,0.00,weatherlink.com 1.10,2013-05-22 05:19:00,
2013-05-21 22:34:00,48.6,36.0,30.00,ESE,115,0.0,1.0,63,0.00,,,0.00,weatherlink.com 1.10,2013-05-22 05:34:00,
2013-05-21 22:49:00,47.8,37.0,30.00,ESE,115,0.0,0.0,66,0.00,,,0.00,weatherlink.com 1.10,2013-05-22 05:49:00,
2013-05-21 23:04:00,46.8,37.0,30.00,SE,145,0.0,0.0,68,0.00,,,0.00,weatherlink.com 1.10,2013-05-22 06:04:00,
2013-05-21 23:19:00,46.5,36.0,30.00,SE,125,0.0,0.0,68,0.00,,,0.00,weatherlink.com 1.10,2013-05-22 06:19:00,
2013-05-21 23:34:00,46.0,37.0,30.00,SE,125,0.0,0.0,70,0.00,,,0.00,weatherlink.com 1.10,2013-05-22 06:34:00,
2013-05-21 23:49:00,45.6,37.0,30.00,SE,125,0.0,0.0,73,0.00,,,0.00,weatherlink.com 1.10,2013-05-22 06:49:00,